Tracking 29892 objects as of 21-Nov-2024
HD Live streaming from Space Station
objects crossing your sky now

CZ-6A DEB

Track CZ-6A DEB now!
10-day predictions


NORAD ID: 55196
Int'l Code: 2022-151VM
Perigee: 643.8 km
Apogee: 776.1 km
Inclination: 98.7 °
Period: 98.8 minutes
Semi major axis: 7080 km
RCS: Unknown
Launch date: November 11, 2022
Source: People's Republic of China (PRC)
Launch site: Taiyaun Space Center, China (TSC)

Note: This is SATELLITE DEBRIS
Your satellite tracking list
Your tracking list is empty




NASA's NSSDC Master Catalog

Two Line Element Set (TLE):
1 55196U 22151VM  24325.80997509  .00021434  00000-0  44885-2 0  9995
2 55196  98.6712 356.5636 0093421 249.3452 109.7708 14.57017917101458
Source of the keplerian elements: AFSPC